Probability
5 6 7 6 5 5 6 5 4 4 3 4 5 4 2 1 1 1 1 0 0 0 0 0 0 0 0 0 0 0 0 0 0 0 0 0 0 0
5 6 7 6 7 8 9 9 9 8 6 5 5 5 3 1 1 2 2 2 1 0 0 0 0 0 0 0 0 0 0 0 0 0 0 0 0 0
4 5 5 6 7 10 11 12 12 12 10 7 7 8 6 3 3 3 3 3 2 1 0 0 0 0 0 0 0 0 0 0 0 0 0 0 0 0
4 4 4 4 6 9 10 12 13 13 11 9 9 10 9 7 6 5 4 3 2 1 0 0 0 0 0 0 0 0 0 0 0 0 0 0 0 0
4 4 4 4 6 8 9 10 12 12 11 11 12 11 10 9 8 6 4 3 2 1 0 0 0 0 0 0 0 0 0 0 0 0 0 0 0 0
5 5 5 5 6 7 7 8 9 12 13 14 13 11 10 8 6 6 5 5 3 2 1 0 0 0 0 0 0 0 0 0 0 0 0 0 0 0
5 5 5 5 5 5 5 5 7 11 14 15 13 11 9 7 5 4 4 4 4 3 2 1 0 0 0 0 0 0 0 0 0 0 0 0 0 0
6 6 5 4 4 4 3 2 3 7 11 12 12 10 10 9 6 4 3 3 4 4 4 2 1 0 0 0 0 0 0 0 0 0 0 0 0 0
7 7 6 5 5 5 5 3 3 5 6 8 9 9 10 11 8 4 3 4 6 6 5 3 2 1 0 0 0 0 0 0 0 0 0 0 0 0
9 8 8 7 7 9 10 9 9 8 5 3 5 6 8 9 8 6 5 5 6 6 5 3 3 2 1 0 0 0 0 0 0 0 0 0 0 0
14 13 12 11 10 11 13 14 14 12 6 3 3 3 4 5 5 6 6 6 7 6 4 4 3 3 1 1 1 1 0 0 0 0 0 0 0 0
20 19 15 12 9 9 13 15 15 13 9 6 5 3 4 4 4 6 7 7 8 7 6 4 3 3 3 2 2 2 1 1 1 0 0 0 0 0
22 20 16 10 6 6 9 12 12 11 10 9 8 7 7 7 7 7 7 7 7 7 7 6 5 4 3 3 3 3 3 2 2 1 1 0 0 0
19 18 13 7 3 2 4 6 7 6 7 8 9 9 8 7 8 9 8 7 7 7 7 7 6 5 4 4 3 3 3 3 3 3 2 1 1 0
14 13 9 4 2 2 2 2 3 5 6 7 8 8 6 6 7 8 7 8 7 6 6 6 6 6 6 5 4 3 3 3 3 3 3 3 2 1
10 9 7 5 5 6 6 5 6 8 9 8 7 6 6 6 6 7 7 7 6 5 4 4 5 6 5 5 4 3 3 3 3 4 3 3 3 3
9 9 10 10 10 11 11 10 10 10 10 8 7 6 5 5 6 7 7 7 6 4 3 3 4 3 3 2 2 2 2 3 3 4 4 3 3 3
8 9 12 13 13 13 12 12 12 11 10 8 6 5 4 4 5 6 6 6 6 4 3 3 3 2 1 1 1 1 1 1 3 3 3 3 3 3
8 9 10 12 12 11 10 10 10 10 9 7 5 5 4 4 4 5 5 6 5 4 3 3 3 2 1 1 1 1 0 1 2 2 2 2 2 1
8 9 9 9 10 9 8 9 9 8 7 6 5 6 6 5 4 5 6 6 4 3 3 3 3 3 3 2 2 1 0 0 1 1 0 1 1 0
8 8 7 6 6 6 7 8 7 6 6 6 7 8 7 6 6 6 6 5 3 3 3 3 3 3 3 3 2 0 0 0 0 0 0 0 0 0
8 7 5 3 3 4 6 6 6 6 6 8 9 9 8 7 6 6 6 4 3 3 3 3 3 3 3 3 2 1 0 0 0 0 0 0 0 0
8 6 3 1 2 3 5 6 6 6 8 9 9 8 7 7 6 6 6 5 4 3 3 3 3 3 3 3 2 1 0 0 0 0 0 0 0 0
Wind_Speed
1 1 2 1 2 2 2 2 2 2 1 2 1 1 1 2 3 3 4 7 7 6 6 6 6 6 6 6 7 7 6 6 6 6 4 4 4 4
2 2 2 2 1 1 2 2 3 2 1 0 1 2 2 2 4 2 4 8 7 7 7 7 6 6 7 7 7 7 6 6 6 6 6 5 4 4
2 2 2 2 2 1 1 2 2 2 2 1 1 3 3 2 3 2 3 3 5 7 6 6 6 6 6 6 6 6 6 6 6 5 5 5 4 3
2 2 2 1 1 2 1 1 1 1 2 2 1 2 2 2 2 2 2 2 3 8 7 6 6 6 5 5 5 5 5 5 5 5 5 4 4 3
1 2 2 2 2 2 1 1 0 1 2 2 2 2 2 2 2 2 2 1 2 6 8 7 6 5 5 5 5 5 4 4 4 4 4 4 4 3
2 2 2 2 2 2 1 1 0 0 1 2 2 2 2 2 2 2 2 2 1 1 3 4 6 6 5 5 5 5 4 4 4 4 3 4 4 4
2 2 3 5 7 5 3 2 1 0 1 1 2 2 2 2 2 1 1 2 2 1 1 2 3 3 4 5 5 4 4 4 4 4 4 4 4 4
1 1 2 3 4 5 5 6 5 2 2 1 1 1 1 1 1 2 1 1 1 1 1 1 1 1 2 2 5 6 5 4 3 3 3 3 3 3
1 1 1 2 2 2 3 3 4 4 3 2 1 1 0 0 1 2 1 1 1 1 1 1 1 1 1 5 8 6 5 4 3 3 2 2 2 1
1 1 1 2 2 2 2 3 4 4 3 1 2 1 1 1 1 2 1 2 2 1 1 2 1 1 1 3 9 7 6 5 4 3 2 1 1 2
2 2 2 1 4 3 2 2 3 3 5 6 5 4 4 4 2 1 1 2 2 2 1 2 1 1 1 1 6 10 8 6 5 4 3 2 2 3
3 3 4 3 3 2 1 1 2 2 2 3 3 3 2 2 0 1 2 2 1 1 1 2 2 1 2 1 2 4 5 6 7 6 4 3 3 3
2 2 3 4 2 2 1 1 1 1 1 2 2 2 2 1 1 1 2 3 3 1 1 2 2 2 2 1 1 2 1 1 3 4 6 6 4 3
1 2 4 4 3 2 1 2 2 3 1 1 1 1 1 1 1 1 1 1 2 2 3 3 3 2 3 2 1 1 1 1 1 2 1 5 6 6
2 4 4 4 5 4 3 1 2 2 1 1 1 1 1 1 0 1 2 2 1 0 1 2 3 3 3 3 2 1 1 1 2 2 2 2 2 3
3 5 5 3 2 2 3 3 1 0 1 0 0 0 1 1 0 0 1 1 1 1 2 1 2 3 3 2 2 2 2 2 1 2 2 2 2 2
3 3 3 3 3 2 2 1 1 1 1 1 0 0 0 0 0 1 1 2 1 1 0 1 2 2 2 3 3 2 2 2 1 1 3 3 3 2
2 2 2 2 1 2 1 1 1 1 1 1 1 1 0 0 0 1 1 2 2 2 2 2 2 2 3 2 2 4 3 3 2 2 4 4 3 2
3 2 1 1 1 1 1 1 1 0 1 1 1 1 1 1 1 1 1 1 2 2 2 2 2 3 4 3 1 3 4 3 3 3 3 4 4 3
3 2 2 2 1 1 1 1 1 1 1 1 1 1 1 1 1 1 1 2 3 3 2 2 3 3 4 5 4 2 3 4 4 4 4 4 4 2
3 2 2 2 2 2 1 1 1 1 1 1 1 1 1 2 2 2 2 1 3 3 3 3 2 3 5 4 4 3 2 4 3 4 5 5 5 4
3 3 2 2 2 2 2 2 2 2 2 2 1 2 2 2 2 3 3 3 3 3 4 3 2 3 4 5 5 5 4 3 4 6 5 6 5 5
3 3 3 3 3 2 2 3 3 2 2 2 2 2 2 2 2 3 3 3 3 3 4 4 4 3 4 5 6 5 5 5 4 3 4 7 9 9
Wind_Direction
296 269 273 286 270 257 232 226 239 236 207 154 136 112 125 105 96 112 99 102 105 100 96 93 88 83 78 75 72 68 65 62 61 63 72 77 75 79
333 341 313 303 307 283 261 250 247 241 262 91 128 126 123 127 122 127 106 113 109 104 100 96 91 87 83 79 78 71 65 63 65 66 63 67 73 77
7 6 338 337 322 290 258 248 252 238 225 249 119 121 136 152 138 154 152 156 123 118 113 109 102 94 86 80 76 73 68 64 63 66 68 67 67 73
18 5 348 358 352 320 312 279 253 236 214 205 180 153 156 162 153 165 151 142 124 122 125 119 112 104 95 87 82 77 72 65 60 61 65 66 67 67
24 15 9 14 4 6 340 332 239 188 192 190 177 147 153 142 154 157 139 135 149 134 139 135 127 117 108 98 89 85 79 72 66 60 55 54 59 61
45 35 27 27 23 11 23 21 4 151 167 175 160 157 143 152 182 181 163 162 175 132 126 139 144 149 136 121 110 99 89 80 72 65 57 51 56 59
58 55 55 53 38 24 14 24 36 210 184 176 174 170 160 172 191 200 173 163 150 163 186 168 157 159 149 150 136 118 109 101 92 78 66 60 63 63
65 64 97 97 83 72 54 39 21 356 331 294 219 183 172 190 184 216 210 209 175 149 234 211 155 137 132 116 120 133 132 124 116 107 93 75 74 76
42 30 31 73 99 99 108 116 70 42 19 327 333 349 182 194 227 226 235 284 310 129 203 237 178 129 122 107 123 133 132 129 126 124 117 104 101 106
43 30 41 37 36 29 85 86 76 63 47 41 36 10 20 4 262 250 212 197 206 192 225 259 209 173 147 128 143 151 153 154 152 147 140 142 198 203
79 53 45 71 37 12 100 99 94 104 92 77 62 64 57 42 356 271 222 217 199 172 202 252 243 220 193 177 155 166 169 173 174 171 170 192 235 231
125 107 67 50 41 2 136 124 112 96 100 114 114 127 129 124 154 299 294 274 254 198 136 259 251 251 224 184 164 164 175 179 186 189 187 196 240 255
143 128 96 94 74 23 336 80 36 311 139 127 124 121 129 126 119 85 346 324 319 334 56 262 275 274 278 246 191 177 182 181 192 193 192 194 211 265
138 112 104 119 116 84 75 49 295 263 181 147 121 98 84 62 59 54 46 357 350 350 344 320 301 298 284 271 254 188 192 209 238 248 236 184 204 219
92 84 110 146 157 137 132 207 233 211 157 145 122 91 80 70 82 132 150 169 179 249 315 297 293 292 288 293 295 289 262 229 234 254 255 249 243 225
144 136 151 157 160 135 161 172 184 30 328 234 111 81 78 103 105 333 303 258 229 165 147 232 281 289 285 289 285 274 267 258 221 242 261 257 253 251
163 166 157 150 152 137 126 117 162 157 188 248 250 148 120 9 5 353 321 304 300 310 240 188 215 233 253 282 277 281 289 282 259 259 257 255 253 251
212 167 153 151 150 142 144 149 168 152 202 232 262 275 260 256 300 310 302 304 313 320 334 338 306 254 226 203 261 269 268 275 275 256 265 264 260 251
204 161 164 177 181 174 169 164 169 167 263 244 224 239 265 267 273 289 311 311 309 315 321 318 309 299 291 284 214 236 281 283 278 269 269 276 279 275
211 184 181 179 194 208 182 186 192 184 203 249 246 265 284 280 277 278 291 310 303 304 309 317 320 312 306 311 312 291 239 279 286 285 291 291 285 260
205 204 192 190 196 195 191 203 202 199 191 244 236 257 267 273 281 283 288 277 282 298 303 311 332 279 281 281 279 282 266 214 247 277 293 292 291 281
196 194 193 206 206 199 201 209 205 201 210 223 226 238 251 264 267 273 286 291 294 304 306 311 300 279 278 281 285 288 283 259 209 213 244 270 292 297
196 202 209 210 203 209 212 217 224 224 229 236 239 250 261 266 276 281 286 292 302 304 301 302 303 297 294 290 291 295 295 289 277 255 240 215 223 236